WELCOME TO TCFT

Voted One Of The Best Flight Schools In The USA

 

 

BECOME AN AIRLINE PILOT

Treasure Coast Flight Training is committed to serving all of your aviation needs as a full service flight academy, aircraft rental facility, and pilot shop

 

 

Questions About Becoming An Airline Pilot?

 

 

What Our Graduates Say

 

 

The training I received with Treasure Coast Flight Training prepared me to become a professional pilot

 

Nathan Meisner

Pilot - Cessna Caravan - USA

Professional yet relaxed environment. Truly an enjoyable experience to fly with TCFT

 

Sophia

Certified Flight Instructor - China

The training I needed to get me to where I am now!

 

Enderson Rafael

Pilot - Go Airlines - Brazil

Thank you TCFT for making me an airline pilot!

 

Kyle Barrett

Pilot - GoJet Airlines - USA

Current Conditions

 

Metar

 

KSUA 181647Z VRB04KT 7SM SKC 22/14 A3019

 

TAF

 

TAF KSUA 181143Z 1812/1912 29004KT P6SM SCT250 FM181500 34005KT P6SM SCT250 FM181800 07008KT P6SM FEW040 SCT250 FM190000 VRB03KT P6SM SCT250

 

 

Look No Further. Get Started Today